Weather History for Henderson, NV

Change the Weather History Date:

Friday, March 15, 2013

  Actual Average (KLAS) Record (KLAS)
Temperature  
Mean Temperature 74 °F 60 °F  
Max Temperature 88 °F 70 °F 87 °F (2007)
Min Temperature 59 °F 49 °F 26 °F (1962)
Degree Days  
Heating Degree Days 0 6  
Month to date heating degree days 110  
Since 1 July heating degree days 1801  
Cooling Degree Days 8 1  
Month to date cooling degree days 7  
Year to date cooling degree days 8  
Growing Degree Days 24 (Base 50)    
Moisture  
Dew Point 26 °F    
Average Humidity 20    
Maximum Humidity 31    
Minimum Humidity 6    
Precipitation  
Precipitation 0.00 in 0.02 in 0.08 in (1965)
Month to date precipitation 0.28  
Year to date precipitation 1.58  
Snow  
Snow 0.00 in 0.00 in T in (1963)
Month to date snowfall 0.0  
Since 1 July snowfall 0.3  
Snow Depth -    
Sea Level Pressure  
Sea Level Pressure 29.93 in    
Wind  
Wind Speed 9 mph (SSW)    
Max Wind Speed 17 mph    
Max Gust Speed -    
Visibility 10 miles    
Events Rain    
T = Trace of Precipitation, MM = Missing Value Source: NWS Daily Summary

Daily Weather History Graph

Daily Weather History Graph

Search for Another Location

Airport:

Trip Planner

Search our weather history database for the weather conditions in past years. The results will help you decide how hot, cold, wet, or windy it might be!

Date:

Astronomy

Mar. 15, 2013 Rise Set
Actual Time 6:50 AM PDT 6:48 PM PDT
Civil Twilight 6:25 AM PDT 7:13 PM PDT
Nautical Twilight 5:55 AM PDT 7:43 PM PDT
Astronomical Twilight 5:25 AM PDT 8:13 PM PDT
Moon 8:52 AM PDT (3/15) 10:57 PM PDT (3/15)
Length of Visible Light 12h 48m
Length of Day
11h 57m
Waxing Crescent, 16% of the Moon is Illuminated
Mar 15
Waxing Crescent
Mar 19
First Quarter
Mar 27
Full
Apr 2
Last Quarter
Apr 10
New

Hourly Weather History & Observations

Time (PDT) Temp. Dew Point Humidity Pressure Visibility Wind Dir Wind Speed Gust Speed Precip Events Conditions
12:56 AM 61.9 °F 28.0 °F 28% 30.03 in 10.0 mi South 9.2 mph - 0.00 in Rain Light Rain
1:56 AM 61.9 °F 26.1 °F 26% 30.01 in 10.0 mi SSE 10.4 mph - 0.00 in Rain Heavy Rain
2:56 AM 61.0 °F 27.1 °F 28% 29.99 in 10.0 mi SSE 5.8 mph - 0.00 in Rain Heavy Rain
3:56 AM 61.9 °F 27.1 °F 27% 29.98 in 10.0 mi South 8.1 mph - 0.00 in Rain Heavy Rain
4:56 AM 59.9 °F 27.1 °F 29% 29.98 in 10.0 mi South 8.1 mph - 0.00 in   Clear
5:56 AM 59.9 °F 27.1 °F 29% 29.99 in 10.0 mi SSW 10.4 mph - 0.00 in Rain Heavy Rain
6:56 AM 59.0 °F 28.0 °F 31% 30.01 in 10.0 mi SSW 4.6 mph - 0.00 in   Clear
7:56 AM 59.9 °F 29.1 °F 31% 30.02 in 10.0 mi South 8.1 mph - N/A   Clear
8:56 AM 64.9 °F 30.0 °F 27% 30.03 in 10.0 mi South 6.9 mph - N/A   Clear
9:56 AM 68.0 °F 30.0 °F 24% 30.03 in 10.0 mi NW 3.5 mph - N/A   Clear
10:56 AM 70.9 °F 30.0 °F 22% 30.02 in 10.0 mi Variable 3.5 mph - N/A   Clear
11:56 AM 75.9 °F 31.1 °F 19% 30.00 in 10.0 mi Variable 4.6 mph - N/A   Clear
12:56 PM 81.0 °F 31.1 °F 16% 29.96 in 10.0 mi Variable 3.5 mph - N/A   Partly Cloudy
1:56 PM 81.9 °F 32.0 °F 16% 29.92 in 10.0 mi NE 8.1 mph - N/A   Partly Cloudy
2:56 PM 84.9 °F 32.0 °F 15% 29.87 in 10.0 mi NE 8.1 mph - N/A   Clear
3:56 PM 88.0 °F 28.0 °F 12% 29.84 in 10.0 mi North 9.2 mph - N/A   Clear
4:46 PM 87.8 °F 14.0 °F 6% 29.88 in 10.0 mi WSW 16.1 mph - N/A   Clear
4:56 PM 87.8 °F 12.2 °F 6% 29.88 in 10.0 mi WSW 15.0 mph - N/A   Clear
5:56 PM 86.0 °F 14.0 °F 7% 29.82 in 10.0 mi SW 15.0 mph - N/A   Clear
6:56 PM 81.9 °F 18.1 °F 9% 29.83 in 10.0 mi SW 10.4 mph - N/A   Clear
7:56 PM 75.9 °F 20.1 °F 12% 29.85 in 10.0 mi SSW 11.5 mph - N/A   Clear
8:56 PM 72.0 °F 21.0 °F 15% 29.85 in 10.0 mi South 3.5 mph - N/A   Clear
10:56 PM 70.0 °F 23.0 °F 17% 29.83 in 10.0 mi SSW 10.4 mph - N/A   Clear
11:56 PM 72.0 °F 27.1 °F 19% 29.81 in 10.0 mi SSW 17.3 mph - N/A   Clear